Temp
-10 -11 -12 -13 -13 -14 -16 -18 -18 -19 -21 -21 -21 -21 -21 -20 -20 -19 -21 -24 -24 -23 -21 -20 -18 -18 -18 -17 -16 -15 -15 -14 -14 -14 -14 -13 -12 -12 -12 -11 -11 -11 -11 -11 -11 -11 -11
-10 -11 -12 -12 -13 -14 -15 -17 -18 -19 -20 -21 -21 -21 -21 -20 -20 -20 -21 -21 -23 -22 -20 -19 -18 -18 -17 -17 -15 -15 -15 -15 -14 -14 -14 -13 -13 -12 -12 -12 -12 -11 -11 -11 -11 -11 -11
-11 -11 -12 -13 -13 -14 -14 -16 -18 -19 -20 -21 -21 -20 -20 -20 -20 -21 -21 -21 -21 -20 -20 -19 -18 -17 -17 -17 -16 -15 -15 -15 -15 -14 -14 -14 -13 -13 -13 -12 -12 -12 -11 -11 -11 -11 -11
-11 -12 -12 -13 -13 -14 -14 -15 -16 -18 -19 -20 -20 -20 -20 -20 -20 -20 -21 -21 -20 -20 -19 -19 -17 -17 -17 -17 -16 -16 -16 -15 -15 -14 -14 -14 -14 -13 -13 -13 -12 -12 -12 -11 -11 -12 -12
-12 -12 -13 -13 -13 -14 -14 -15 -16 -18 -19 -19 -20 -19 -19 -19 -20 -19 -20 -21 -20 -19 -19 -18 -18 -17 -17 -17 -17 -16 -16 -16 -15 -15 -14 -14 -14 -14 -13 -13 -13 -12 -12 -12 -12 -12 -12
-12 -12 -13 -13 -13 -14 -14 -14 -15 -16 -18 -19 -19 -18 -18 -19 -18 -19 -18 -19 -19 -19 -18 -18 -18 -18 -18 -18 -17 -17 -17 -16 -15 -15 -14 -14 -14 -14 -14 -13 -13 -13 -13 -12 -12 -12 -12
-12 -12 -13 -13 -13 -13 -14 -14 -14 -15 -17 -18 -18 -17 -17 -18 -18 -18 -18 -18 -18 -18 -18 -18 -18 -18 -18 -18 -18 -17 -17 -17 -16 -15 -15 -15 -14 -14 -14 -14 -14 -13 -13 -13 -13 -12 -12
-12 -12 -13 -13 -14 -13 -14 -14 -14 -14 -16 -17 -18 -17 -17 -17 -17 -17 -18 -17 -17 -17 -17 -18 -18 -17 -17 -17 -17 -17 -17 -17 -16 -16 -16 -15 -15 -14 -14 -14 -14 -14 -13 -13 -13 -13 -12
-12 -13 -13 -13 -13 -14 -14 -14 -14 -14 -15 -16 -17 -17 -17 -17 -17 -17 -17 -17 -16 -16 -16 -17 -17 -16 -17 -17 -17 -17 -18 -18 -17 -16 -16 -16 -15 -15 -14 -14 -14 -14 -14 -14 -13 -13 -12
-12 -12 -13 -13 -14 -14 -14 -14 -14 -14 -14 -15 -16 -17 -17 -16 -16 -17 -16 -17 -17 -17 -17 -17 -17 -17 -18 -17 -17 -17 -17 -17 -17 -17 -16 -16 -15 -15 -15 -15 -14 -14 -14 -14 -14 -13 -13
-12 -12 -12 -13 -14 -14 -14 -14 -14 -14 -14 -14 -15 -16 -17 -17 -17 -17 -16 -16 -16 -16 -15 -16 -17 -16 -17 -17 -17 -17 -17 -17 -17 -17 -17 -16 -16 -15 -15 -15 -15 -15 -14 -14 -14 -14 -13
-12 -12 -12 -12 -13 -14 -14 -14 -14 -14 -14 -14 -14 -15 -16 -17 -17 -17 -17 -17 -16 -16 -16 -17 -17 -17 -17 -17 -17 -17 -17 -17 -16 -16 -16 -16 -16 -16 -15 -15 -15 -15 -14 -14 -14 -14 -13
-12 -13 -12 -12 -12 -13 -13 -14 -14 -13 -14 -14 -14 -14 -15 -15 -16 -17 -17 -17 -17 -16 -16 -17 -17 -17 -17 -17 -17 -17 -17 -17 -16 -16 -16 -16 -16 -15 -15 -15 -15 -15 -14 -14 -14 -14 -13
-12 -13 -13 -12 -12 -12 -13 -13 -13 -14 -13 -14 -14 -14 -14 -14 -14 -15 -17 -17 -17 -17 -16 -17 -17 -17 -17 -17 -17 -17 -17 -17 -17 -16 -16 -16 -16 -15 -15 -15 -15 -14 -14 -14 -14 -14 -14
-13 -12 -13 -13 -12 -12 -12 -13 -13 -13 -13 -13 -13 -14 -14 -14 -14 -14 -15 -16 -16 -16 -17 -17 -17 -17 -17 -17 -17 -17 -17 -16 -16 -16 -16 -16 -16 -16 -16 -15 -15 -15 -15 -15 -15 -14 -14
-13 -12 -12 -13 -12 -12 -12 -13 -13 -13 -13 -13 -13 -13 -14 -14 -14 -14 -15 -15 -15 -16 -16 -16 -16 -16 -17 -17 -17 -17 -16 -16 -16 -16 -16 -16 -16 -16 -16 -16 -15 -15 -15 -15 -15 -15 -14
-13 -13 -12 -12 -12 -12 -12 -12 -13 -12 -12 -13 -13 -13 -13 -13 -14 -14 -14 -14 -15 -15 -15 -15 -16 -16 -16 -16 -16 -16 -16 -16 -16 -16 -16 -16 -16 -16 -16 -16 -16 -16 -15 -15 -15 -15 -14
-13 -13 -12 -12 -13 -12 -12 -12 -12 -12 -12 -13 -13 -13 -13 -13 -13 -13 -14 -14 -14 -15 -15 -15 -15 -15 -15 -16 -16 -16 -16 -16 -16 -16 -16 -16 -16 -16 -16 -16 -15 -15 -15 -15 -15 -15 -14
-13 -13 -13 -12 -13 -13 -12 -12 -12 -12 -12 -12 -12 -13 -13 -13 -13 -13 -13 -14 -14 -14 -14 -15 -15 -15 -15 -15 -15 -15 -15 -15 -15 -15 -15 -15 -15 -15 -15 -15 -15 -15 -15 -14 -14 -14 -14
-14 -14 -13 -13 -13 -13 -13 -12 -12 -12 -12 -12 -13 -13 -13 -13 -13 -13 -13 -13 -13 -14 -14 -14 -14 -14 -14 -15 -15 -15 -15 -15 -15 -15 -14 -14 -14 -14 -14 -14 -14 -14 -14 -14 -13 -13 -13
-14 -14 -13 -13 -13 -13 -12 -13 -12 -12 -12 -12 -13 -13 -13 -13 -13 -13 -13 -13 -13 -13 -13 -13 -13 -13 -14 -14 -14 -14 -14 -14 -14 -14 -14 -14 -14 -14 -13 -14 -14 -14 -13 -13 -13 -13 -13
-14 -14 -13 -13 -13 -13 -13 -13 -12 -12 -12 -13 -13 -13 -13 -13 -13 -13 -13 -13 -13 -13 -13 -13 -13 -13 -13 -13 -13 -13 -14 -14 -14 -14 -14 -14 -14 -14 -13 -13 -13 -13 -13 -13 -13 -13 -13
-14 -14 -14 -14 -13 -13 -13 -13 -13 -13 -12 -13 -13 -13 -13 -12 -12 -13 -13 -13 -13 -13 -13 -13 -13 -13 -13 -13 -13 -13 -13 -13 -13 -13 -13 -13 -13 -13 -13 -13 -13 -13 -13 -13 -13 -13 -13
-14 -14 -14 -14 -14 -14 -14 -14 -14 -14 -14 -13 -13 -13 -13 -12 -12 -12 -12 -12 -12 -13 -13 -12 -12 -13 -13 -13 -13 -13 -13 -13 -13 -13 -13 -13 -13 -13 -13 -13 -13 -13 -13 -13 -13 -13 -13
-14 -14 -14 -15 -14 -14 -15 -15 -15 -14 -14 -14 -13 -13 -13 -13 -12 -12 -13 -13 -13 -13 -13 -13 -13 -12 -12 -13 -13 -13 -13 -13 -13 -13 -13 -13 -13 -13 -13 -13 -13 -13 -13 -13 -13 -13 -13
-16 -15 -15 -15 -15 -14 -14 -14 -15 -15 -14 -14 -14 -14 -13 -13 -13 -12 -12 -12 -12 -13 -13 -13 -13 -13 -12 -12 -12 -12 -12 -13 -13 -13 -13 -13 -13 -13 -12 -12 -12 -13 -13 -13 -13 -13 -13
-16 -16 -15 -15 -15 -15 -14 -14 -15 -15 -15 -15 -15 -14 -15 -14 -13 -13 -12 -12 -12 -12 -12 -12 -12 -12 -12 -12 -12 -12 -12 -12 -12 -12 -13 -13 -13 -12 -12 -11 -12 -13 -13 -13 -13 -12 -12
-16 -16 -15 -16 -15 -16 -15 -15 -15 -15 -14 -14 -14 -14 -13 -13 -14 -14 -13 -13 -12 -12 -12 -12 -12 -12 -12 -12 -11 -11 -11 -12 -12 -12 -12 -13 -13 -12 -12 -12 -12 -13 -13 -13 -12 -11 -11
-17 -16 -16 -16 -16 -16 -16 -15 -15 -15 -15 -14 -14 -14 -13 -13 -13 -14 -14 -13 -12 -12 -12 -12 -12 -12 -12 -12 -11 -11 -11 -11 -12 -12 -12 -12 -13 -13 -13 -12 -13 -13 -13 -12 -11 -11 -10
Height
5763 5751 5739 5726 5712 5697 5682 5668 5654 5641 5630 5621 5610 5600 5591 5587 5576 5555 5557 5556 5561 5573 5587 5603 5615 5625 5634 5646 5658 5670 5684 5694 5708 5719 5730 5738 5746 5753 5760 5767 5773 5778 5782 5786 5789 5792 5795
5765 5754 5742 5729 5716 5702 5687 5673 5660 5647 5635 5623 5611 5602 5593 5591 5588 5583 5579 5573 5572 5580 5593 5606 5621 5628 5637 5650 5660 5672 5683 5694 5706 5717 5728 5736 5744 5751 5758 5764 5770 5775 5779 5782 5785 5788 5791
5767 5757 5746 5734 5721 5708 5694 5680 5668 5654 5641 5628 5616 5608 5600 5596 5593 5589 5590 5590 5589 5598 5611 5623 5629 5632 5643 5654 5663 5673 5684 5693 5704 5715 5725 5733 5741 5749 5756 5762 5767 5772 5776 5779 5783 5785 5788
5771 5760 5750 5740 5727 5714 5701 5688 5675 5663 5649 5635 5625 5617 5610 5606 5605 5599 5600 5605 5608 5618 5624 5627 5630 5640 5650 5659 5668 5676 5685 5694 5705 5714 5725 5732 5739 5747 5753 5759 5764 5768 5772 5776 5779 5782 5785
5774 5765 5755 5745 5734 5721 5709 5696 5685 5673 5659 5646 5637 5631 5625 5619 5615 5614 5616 5615 5617 5620 5627 5634 5641 5650 5658 5664 5670 5679 5688 5696 5705 5714 5725 5732 5738 5744 5750 5755 5760 5765 5769 5773 5776 5779 5781
5779 5770 5760 5751 5741 5730 5718 5706 5694 5684 5672 5660 5651 5645 5639 5634 5630 5629 5631 5631 5634 5636 5640 5645 5650 5657 5662 5669 5675 5684 5690 5698 5706 5715 5725 5732 5738 5744 5749 5754 5759 5763 5766 5769 5772 5775 5777
5784 5776 5766 5756 5747 5737 5728 5716 5704 5694 5686 5675 5665 5660 5654 5649 5646 5641 5640 5641 5647 5650 5652 5655 5661 5665 5671 5675 5681 5687 5694 5701 5708 5716 5724 5730 5737 5742 5747 5752 5756 5761 5764 5767 5769 5771 5774
5788 5781 5772 5763 5753 5744 5735 5726 5716 5706 5698 5689 5680 5673 5668 5662 5657 5651 5644 5649 5655 5661 5662 5666 5670 5673 5677 5681 5686 5691 5697 5703 5709 5717 5724 5731 5736 5742 5747 5751 5755 5758 5761 5764 5766 5767 5769
5792 5785 5777 5768 5760 5751 5744 5734 5726 5717 5709 5702 5693 5685 5682 5677 5672 5668 5668 5666 5666 5667 5670 5675 5677 5680 5683 5686 5689 5694 5699 5704 5711 5717 5723 5729 5735 5740 5744 5748 5752 5755 5758 5760 5762 5763 5765
5795 5789 5782 5775 5766 5758 5750 5744 5736 5727 5719 5712 5705 5698 5692 5689 5687 5683 5682 5679 5680 5681 5681 5683 5683 5685 5688 5690 5692 5696 5701 5707 5711 5717 5722 5728 5732 5737 5741 5745 5749 5751 5753 5755 5757 5759 5759
5799 5792 5787 5779 5772 5763 5756 5750 5744 5737 5729 5722 5715 5709 5703 5697 5695 5692 5693 5692 5690 5690 5690 5692 5691 5692 5692 5693 5697 5699 5703 5709 5712 5717 5723 5728 5731 5735 5739 5743 5745 5748 5750 5751 5752 5753 5753
5801 5795 5789 5783 5776 5770 5762 5756 5751 5745 5738 5731 5725 5718 5712 5708 5703 5700 5698 5697 5698 5698 5696 5697 5697 5697 5697 5698 5699 5702 5705 5709 5714 5720 5724 5728 5731 5734 5737 5740 5742 5745 5746 5747 5748 5748 5749
5802 5797 5791 5784 5779 5773 5767 5760 5755 5751 5745 5739 5733 5728 5721 5715 5710 5706 5703 5703 5703 5702 5703 5703 5703 5703 5704 5706 5707 5708 5709 5712 5715 5720 5723 5727 5730 5732 5735 5737 5739 5741 5742 5743 5744 5743 5744
5802 5797 5792 5787 5781 5775 5769 5763 5758 5754 5751 5745 5741 5736 5731 5724 5719 5712 5710 5710 5708 5706 5706 5706 5707 5709 5709 5711 5712 5712 5714 5716 5717 5719 5722 5725 5728 5730 5731 5733 5735 5737 5738 5739 5738 5739 5739
5802 5797 5792 5787 5782 5777 5770 5765 5760 5756 5753 5750 5745 5742 5738 5733 5728 5722 5717 5717 5713 5711 5709 5709 5709 5710 5711 5712 5714 5715 5716 5718 5720 5721 5724 5725 5727 5728 5729 5731 5733 5733 5735 5735 5734 5734 5733
5802 5797 5792 5787 5783 5778 5771 5766 5762 5757 5754 5753 5749 5745 5742 5738 5735 5730 5726 5724 5721 5717 5715 5714 5713 5712 5712 5713 5715 5715 5717 5719 5720 5722 5723 5725 5726 5727 5728 5729 5730 5731 5732 5732 5730 5729 5727
5799 5795 5791 5786 5782 5778 5772 5766 5762 5758 5754 5753 5751 5746 5744 5742 5739 5737 5733 5731 5727 5724 5722 5720 5717 5716 5715 5715 5716 5717 5719 5720 5720 5722 5723 5724 5725 5727 5727 5728 5728 5728 5728 5728 5727 5726 5724
5797 5794 5789 5784 5781 5777 5772 5767 5762 5758 5754 5753 5750 5749 5746 5744 5743 5739 5738 5735 5733 5730 5728 5726 5725 5723 5721 5719 5719 5719 5720 5720 5721 5722 5722 5723 5724 5725 5726 5725 5725 5725 5725 5725 5724 5725 5723
5792 5790 5786 5782 5778 5774 5771 5767 5761 5758 5754 5752 5751 5749 5747 5746 5744 5742 5739 5738 5736 5733 5732 5730 5728 5727 5727 5726 5726 5723 5721 5721 5721 5722 5723 5724 5724 5724 5725 5726 5725 5724 5724 5723 5723 5722 5722
5786 5784 5782 5778 5774 5771 5768 5764 5760 5757 5753 5751 5749 5749 5747 5745 5744 5743 5741 5740 5737 5735 5734 5733 5731 5729 5727 5727 5727 5727 5726 5725 5723 5722 5722 5723 5724 5724 5724 5724 5723 5723 5722 5721 5721 5720 5720
5780 5777 5775 5772 5769 5767 5765 5761 5758 5755 5752 5750 5748 5747 5745 5744 5743 5742 5741 5740 5739 5738 5736 5734 5734 5733 5731 5730 5728 5728 5727 5726 5725 5724 5723 5721 5721 5721 5721 5721 5721 5720 5720 5719 5719 5718 5718
5772 5771 5769 5766 5763 5760 5758 5757 5754 5752 5750 5749 5746 5744 5743 5742 5741 5740 5740 5738 5737 5737 5735 5735 5735 5732 5731 5730 5730 5728 5728 5726 5726 5724 5723 5722 5721 5719 5718 5717 5718 5718 5716 5716 5716 5714 5714
5765 5765 5762 5760 5758 5754 5752 5751 5750 5749 5747 5746 5744 5742 5740 5740 5739 5738 5737 5737 5736 5734 5733 5732 5731 5730 5731 5730 5728 5727 5726 5725 5723 5722 5722 5720 5719 5718 5717 5715 5715 5716 5714 5714 5713 5711 5711
5758 5757 5756 5754 5754 5752 5749 5747 5745 5744 5742 5742 5741 5739 5738 5737 5735 5734 5734 5733 5732 5731 5730 5730 5729 5727 5727 5726 5726 5726 5724 5722 5722 5720 5719 5718 5716 5714 5715 5713 5712 5711 5710 5710 5709 5707 5706
5747 5748 5749 5747 5747 5747 5745 5743 5742 5740 5737 5736 5735 5735 5734 5733 5732 5731 5730 5729 5727 5727 5726 5725 5724 5724 5723 5721 5720 5720 5720 5719 5718 5717 5716 5713 5712 5711 5709 5708 5710 5708 5706 5704 5703 5702 5700
5737 5739 5739 5739 5739 5740 5739 5737 5735 5734 5733 5730 5730 5730 5729 5730 5728 5726 5724 5723 5722 5720 5720 5720 5719 5719 5718 5717 5714 5715 5714 5712 5711 5711 5710 5709 5707 5706 5704 5702 5702 5701 5698 5696 5695 5695 5691
5726 5729 5729 5729 5730 5730 5730 5730 5729 5727 5726 5725 5724 5722 5723 5724 5723 5722 5720 5718 5716 5714 5713 5712 5712 5712 5710 5709 5708 5707 5706 5704 5704 5703 5703 5700 5698 5698 5697 5695 5698 5694 5691 5688 5687 5687 5683
5712 5716 5717 5717 5718 5718 5720 5720 5720 5719 5718 5718 5716 5715 5716 5717 5716 5714 5712 5710 5709 5708 5706 5705 5705 5704 5701 5701 5700 5698 5697 5697 5697 5696 5695 5692 5690 5689 5685 5687 5690 5688 5683 5680 5678 5673 5672
5699 5702 5704 5704 5706 5707 5707 5708 5709 5708 5707 5708 5708 5706 5705 5704 5706 5705 5704 5701 5700 5698 5697 5695 5694 5692 5690 5690 5688 5687 5687 5686 5687 5687 5687 5683 5681 5676 5678 5681 5680 5674 5670 5667 5665 5665 5667
Wind_Speed
60 60 64 69 73 76 73 62 57 48 37 37 38 38 31 31 36 29 34 15 19 40 45 48 49 44 28 35 41 51 51 50 48 47 44 42 40 37 36 35 35 33 32 31 30 29 28
59 60 62 66 70 73 76 68 62 55 45 43 44 42 28 26 29 21 21 17 19 52 62 55 55 24 46 48 48 47 49 48 48 46 44 41 39 37 35 33 32 32 29 28 26 27 27
59 59 60 64 67 70 74 74 65 59 52 47 44 37 30 28 30 26 27 27 40 55 51 35 22 33 37 37 45 47 51 48 49 47 45 42 39 37 35 33 33 31 30 28 27 26 24
59 59 59 61 65 68 71 75 70 64 57 53 45 39 40 38 39 26 25 30 35 32 15 19 25 36 29 27 36 43 48 48 47 47 46 42 39 37 36 34 32 32 31 30 28 26 24
60 59 59 59 61 64 68 71 74 65 61 53 46 45 46 46 45 31 23 14 26 27 32 27 29 37 33 32 38 42 43 46 46 45 44 42 39 37 36 35 34 33 32 30 29 27 26
56 61 59 59 59 61 64 67 71 69 62 55 48 51 46 49 44 39 20 11 23 20 37 38 28 24 25 21 31 36 43 44 44 43 42 39 37 35 34 33 32 31 31 31 31 29 29
53 57 60 59 58 58 59 63 66 69 60 55 49 46 49 49 45 44 37 25 11 30 26 31 28 26 24 19 26 33 36 39 41 41 39 39 37 36 34 33 32 32 32 32 32 30 30
50 53 58 60 57 55 56 58 61 64 64 54 49 43 45 47 41 48 45 37 26 19 16 9 17 16 17 18 19 28 34 36 38 38 37 37 36 35 33 32 32 32 32 32 32 32 33
46 49 52 58 56 53 52 53 55 58 61 55 45 41 38 41 43 41 43 40 30 21 12 15 12 11 10 11 15 15 27 32 35 36 36 35 36 35 35 34 33 33 33 33 34 35 36
43 45 47 52 55 51 48 47 49 52 54 55 46 40 34 38 39 39 40 38 32 25 20 20 17 14 12 14 17 21 20 30 32 34 35 36 35 35 34 34 34 33 33 34 34 35 37
40 42 44 47 51 53 46 43 44 45 48 49 48 40 34 31 31 31 29 27 29 21 19 23 20 19 13 11 13 17 21 22 28 30 31 31 32 32 32 32 32 32 32 34 35 36 37
41 39 41 42 45 48 46 41 38 38 41 45 45 42 37 30 26 25 23 19 21 24 24 21 19 15 15 17 14 14 16 19 22 26 26 26 27 28 29 30 30 30 32 33 33 32 31
39 40 40 41 41 45 43 39 35 33 33 36 40 40 38 37 30 25 21 20 19 18 22 21 21 20 19 16 14 14 16 17 16 15 19 22 22 23 25 26 27 26 25 26 27 27 29
37 39 39 39 39 41 44 36 32 29 28 29 32 35 35 36 39 33 27 18 16 20 20 22 17 15 17 15 13 10 10 10 11 13 15 14 13 15 16 17 19 20 21 23 26 26 25
34 36 37 36 36 37 41 37 30 27 25 23 26 28 30 31 33 35 34 25 22 20 14 13 12 14 11 11 11 11 11 11 8 6 6 6 9 12 14 17 19 19 20 22 24 24 25
35 35 35 33 32 33 37 35 29 23 23 20 19 22 23 25 27 28 31 29 29 24 18 18 17 16 14 12 11 8 5 4 4 4 3 5 7 9 11 14 16 18 19 21 23 25 24
36 33 33 34 30 30 33 32 28 24 19 18 14 14 18 19 21 23 23 23 26 27 26 24 22 18 16 13 9 8 8 6 4 2 3 6 9 10 12 13 16 18 20 20 23 20 15
37 33 31 31 30 26 30 30 27 22 17 16 14 12 12 14 14 17 17 18 18 19 20 22 21 21 21 19 19 18 16 14 11 7 3 3 8 11 12 13 12 10 10 10 11 11 10
36 33 32 30 28 25 24 28 25 22 17 14 16 13 10 9 11 12 13 13 14 16 15 13 13 13 13 14 14 14 14 13 11 10 8 7 5 2 1 1 3 5 6 8 8 8 7
36 32 31 32 29 27 23 24 23 22 18 14 12 12 11 10 8 9 9 8 9 10 11 12 12 11 10 8 6 6 6 6 7 8 7 5 3 1 2 3 4 5 5 6 6 7 9
38 36 37 35 32 28 27 20 19 20 19 16 13 11 11 9 9 8 7 7 7 7 7 7 8 9 8 8 7 7 6 4 3 0 2 3 3 5 5 6 6 7 8 8 6 12 9
36 35 34 33 28 28 26 22 13 15 16 17 16 11 12 12 10 10 11 8 7 7 6 5 5 3 5 5 5 4 4 2 2 1 2 2 1 1 2 5 11 13 15 14 14 17 17
36 32 23 20 22 19 17 18 14 15 15 16 15 14 13 14 13 12 12 14 13 11 11 10 9 8 7 5 5 5 6 6 6 6 5 6 6 6 7 5 5 6 7 8 10 11 9
37 29 23 18 18 16 17 15 16 16 14 15 11 11 14 16 14 15 16 16 16 17 15 15 15 15 14 14 13 13 11 11 12 13 12 12 13 12 11 14 9 9 10 12 12 14 12
38 29 23 18 20 21 18 17 17 16 13 13 9 11 13 14 17 18 19 22 20 18 18 20 21 19 18 18 18 19 20 19 18 17 17 17 17 18 16 17 15 16 17 17 18 21 19
33 32 29 26 25 24 23 21 22 22 18 14 15 14 14 19 16 18 19 20 22 22 21 21 23 24 25 24 24 19 20 24 25 24 24 24 26 24 20 20 16 17 22 22 25 23 26
37 37 32 27 28 28 28 28 24 21 22 22 22 19 21 24 25 24 25 26 26 25 26 28 27 27 29 29 30 29 26 27 28 25 25 28 31 31 30 29 19 25 26 29 29 31 28
39 38 34 30 31 29 31 32 29 27 25 25 26 27 28 26 26 30 33 35 32 33 32 31 31 34 38 35 33 33 35 34 31 31 30 32 33 32 35 31 27 29 33 35 37 36 32
44 40 38 35 33 33 36 36 36 34 33 33 33 33 35 35 34 32 34 37 40 41 39 39 39 38 41 41 42 41 41 41 40 40 35 38 37 40 38 36 37 38 39 42 43 40 37
Wind_Direction
14 13 15 16 18 18 19 18 18 20 18 13 12 9 10 24 36 45 29 107 150 164 161 168 165 176 178 176 184 185 188 188 194 198 200 200 201 203 206 206 212 215 214 215 221 226 231
17 14 16 18 19 20 20 20 20 21 18 17 13 14 27 33 54 65 61 47 127 156 155 163 157 165 167 185 191 187 185 186 191 196 198 200 200 202 205 208 211 213 213 215 220 227 230
19 16 17 19 21 21 20 22 21 24 25 26 26 34 49 42 58 66 85 116 144 145 153 145 172 148 153 172 176 183 185 184 189 193 196 197 199 200 204 207 210 214 215 217 221 225 228
18 18 18 20 22 23 22 22 24 25 24 37 41 42 51 56 64 78 107 127 125 126 115 100 131 144 161 164 176 180 180 183 188 191 197 195 197 201 203 204 210 214 215 218 221 223 222
18 17 18 21 23 23 24 22 24 25 27 42 48 57 51 49 57 72 127 136 135 97 116 93 126 159 169 161 175 177 179 182 187 191 197 197 197 201 204 205 206 213 218 220 223 226 226
20 18 18 19 22 25 24 24 24 27 30 40 52 53 49 52 58 66 107 161 139 118 107 102 109 131 150 156 171 175 179 181 185 190 195 198 200 202 205 208 212 217 220 223 226 228 234
17 18 19 18 20 23 26 27 26 25 33 40 51 54 56 53 59 61 70 79 131 130 119 104 91 89 126 134 172 183 182 181 184 190 195 198 201 205 207 212 215 221 226 231 235 238 241
14 18 17 19 19 20 24 27 29 28 29 39 47 56 64 56 58 52 62 78 87 130 113 78 104 91 108 117 136 177 183 182 186 191 197 201 203 208 212 217 221 226 231 236 242 247 249
14 14 14 15 20 18 23 25 29 31 28 34 45 54 54 57 58 64 69 81 82 85 126 126 105 113 123 128 148 156 182 185 189 193 198 204 208 211 216 221 226 231 237 243 248 252 256
10 11 10 14 14 20 19 25 27 30 33 30 40 49 59 56 57 62 68 70 83 84 100 101 99 113 132 144 161 173 184 192 194 197 202 207 211 216 221 226 232 237 243 248 252 256 260
7 8 9 12 14 13 18 21 25 31 33 33 34 45 52 52 58 66 65 69 69 76 83 91 95 101 117 132 146 172 180 194 199 200 206 210 215 220 227 233 239 245 250 255 259 263 264
359 5 6 7 9 11 13 15 23 26 33 36 35 38 47 54 57 59 64 69 75 76 89 96 101 113 119 121 123 141 163 183 197 210 215 216 221 226 232 238 244 249 255 259 262 265 264
355 357 3 3 5 6 9 9 14 24 30 36 39 37 44 48 54 56 64 70 87 84 94 103 103 103 101 102 112 126 141 148 159 186 205 217 224 232 237 241 245 249 252 256 256 258 264
350 352 356 359 359 1 4 5 7 15 22 34 40 41 43 49 54 59 57 66 88 92 94 95 88 103 101 88 96 101 115 119 141 159 173 186 198 209 218 228 232 236 242 249 255 259 261
345 345 346 354 355 357 2 1 4 4 15 21 35 44 44 46 52 57 64 63 67 75 92 96 94 99 92 78 70 84 94 102 119 133 168 199 214 219 223 227 232 239 246 251 257 265 271
341 343 342 348 352 353 360 1 358 0 1 11 29 35 44 47 48 53 58 61 65 70 73 77 80 87 91 85 85 93 76 71 110 164 190 216 226 231 237 240 244 248 252 259 264 272 281
336 338 336 339 348 347 354 356 358 354 353 358 5 34 37 43 47 49 53 55 62 64 66 72 79 82 83 85 91 90 95 107 126 172 230 232 239 246 248 250 258 260 262 264 271 269 272
329 329 331 332 337 343 347 348 355 352 352 346 349 4 29 34 42 51 47 48 51 56 64 67 66 71 76 82 86 84 87 86 86 87 105 221 244 256 260 264 262 258 253 252 255 266 276
322 323 326 324 327 334 340 343 347 351 343 339 333 343 2 16 27 36 52 49 47 50 47 54 66 67 67 73 75 86 93 90 87 85 76 68 70 77 131 215 239 243 247 260 268 272 269
313 316 320 316 318 323 328 342 338 346 344 332 325 328 337 349 351 10 13 34 46 46 51 50 48 53 56 51 55 64 79 92 110 107 96 83 88 109 239 252 267 270 262 260 258 260 262
307 313 314 311 309 315 314 330 328 338 344 339 314 310 317 318 330 331 332 343 353 10 29 44 44 34 39 44 52 64 61 52 57 263 209 210 236 267 281 276 271 267 267 267 272 274 268
304 312 313 311 306 305 306 311 310 319 331 338 337 296 295 305 308 311 313 301 299 304 310 324 338 16 11 9 13 2 350 337 314 269 280 285 274 196 281 282 271 270 274 280 276 271 269
296 305 303 315 313 312 307 299 285 294 300 318 327 321 301 289 297 303 304 306 303 291 288 289 288 288 290 291 293 302 314 313 309 303 290 283 274 266 268 257 273 284 292 285 291 286 298
291 290 286 293 303 314 318 303 287 295 291 287 307 323 314 306 289 283 294 298 295 294 295 293 288 282 284 285 285 282 276 275 276 281 288 285 284 282 280 284 279 279 277 285 285 289 291
286 269 272 274 287 288 287 302 308 307 294 294 258 306 315 316 309 302 301 302 301 285 289 291 292 291 285 278 277 278 278 279 273 278 273 272 275 277 276 274 279 288 282 278 276 284 282
273 264 266 280 278 284 287 295 293 302 310 299 286 281 293 301 302 308 310 309 300 295 284 283 288 295 293 287 281 278 277 277 275 275 278 277 280 279 272 266 273 272 267 273 277 271 274
263 264 265 267 282 291 295 298 299 288 289 297 302 301 296 289 286 292 296 301 298 292 289 290 288 286 282 284 288 288 276 276 278 277 276 274 276 279 280 278 274 271 273 272 273 271 269
250 257 264 268 278 285 289 290 292 291 290 285 283 282 284 281 281 282 284 287 286 287 287 284 282 283 284 279 276 277 283 282 280 279 280 276 276 277 276 279 285 277 273 271 271 273 272
246 252 261 263 273 278 279 281 285 289 295 297 295 295 294 286 285 283 282 281 286 281 279 278 279 276 274 277 277 276 276 274 276 279 277 275 274 275 276 279 284 279 272 268 271 272 277